Location: Port-Aux-Quilles Astronomical Observatory
(47.9769°N, 69.9642°W)
Time: 21:06:12
(UTC-04:00)

ISS - Visible Passes

Search period start: 19 March 2019 00:00
Search period end: 29 March 2019 00:00
Orbit: 406 x 411 km, 51.6° (Epoch: 20 March)

Date Brightness Start Highest point End Pass type
(mag) Time Alt. Az. Time Alt. Az. Time Alt. Az.
21 Mar -2.2 20:04:59 10° S 20:07:17 19° SE 20:07:17 19° SE visible
22 Mar -3.3 20:49:21 10° SW 20:51:55 47° SSW 20:51:55 47° SSW visible
23 Mar -3.2 19:58:33 10° SW 20:01:39 38° SE 20:03:32 19° E visible
23 Mar -1.5 21:34:53 10° W 21:36:19 23° W 21:36:19 23° W visible
24 Mar -3.8 20:43:45 10° WSW 20:47:03 76° NNW 20:47:44 52° NE visible
25 Mar -3.9 19:52:42 10° WSW 19:55:59 75° SSE 19:59:02 12° ENE visible
25 Mar -2.1 21:29:32 10° W 21:31:47 33° NW 21:31:47 33° NW visible
26 Mar -3.1 20:38:19 10° W 20:41:33 51° NNW 20:42:57 28° NE visible
26 Mar -0.5 22:15:16 10° WNW 22:15:41 13° WNW 22:15:41 13° WNW visible
27 Mar -3.5 19:47:07 10° W 19:50:24 65° NNW 19:53:41 10° ENE visible
27 Mar -2.5 21:24:06 10° WNW 21:26:45 38° NNW 21:26:45 38° NNW visible
28 Mar -2.8 20:32:53 10° WNW 20:36:04 42° N 20:37:45 23° NE visible
28 Mar -0.8 22:09:40 10° WNW 22:10:28 16° WNW 22:10:28 16° WNW visible
